Holland, MI

7:14 PM EST on February 19, 2017 (GMT -0500)
Tulip City

Weather History for KBIV - May, 2013

Change the Weather History Date:

Tuesday, May 28, 2013

  Actual Average Record
Temperature  
Mean Temperature 67 °F 63 °F  
Max Temperature 78 °F 73 °F 93 °F (2012)
Min Temperature 55 °F 53 °F 33 °F (1971)
Degree Days  
Heating Degree Days 0 5  
Month to date heating degree days 146 220  
Since 1 July heating degree days 5949 6099  
Cooling Degree Days 2 2  
Month to date cooling degree days 54 30  
Year to date cooling degree days 60 34  
Growing Degree Days 16 (Base 50)    
Moisture  
Dew Point 60 °F    
Average Humidity 77    
Maximum Humidity 90    
Minimum Humidity 64    
Precipitation  
Precipitation 0.67 in 0.09 in 1.50 in (2000)
Month to date precipitation 2.34 2.94  
Year to date precipitation 18.18 12.35  
Sea Level Pressure  
Sea Level Pressure 29.84 in    
Wind  
Wind Speed 12 mph (SSE)    
Max Wind Speed 26 mph    
Max Gust Speed 33 mph    
Visibility 6 miles    
Events Rain , Thunderstorm    
T = Trace of Precipitation, MM = Missing Value Source: NWS Daily Summary

Daily Weather History Graph

Daily Weather History Graph

Search for Another Location

Airport or City:

Trip Planner

Search our weather history database for the weather conditions in past years. The results will help you decide how hot, cold, wet, or windy it might be!

Date:

Astronomy

May. 28, 2013 Rise Set
Actual Time 6:11 AM EDT 9:12 PM EDT
Civil Twilight 5:37 AM EDT 9:46 PM EDT
Nautical Twilight 4:53 AM EDT 10:30 PM EDT
Astronomical Twilight 4:02 AM EDT 11:21 PM EDT
Moon No Moon Rise 10:00 AM EDT (5/28)
Length of Visible Light 16h 09m
Length of Day
15h 01m
Waning Gibbous, 83% of the Moon is Illuminated
May 28
Waning Gibbous
May 31
Last Quarter
Jun 8
New
Jun 16
First Quarter
Jun 23
Full

Hourly Weather History & Observations

Time (EDT) Temp. Dew Point Humidity Pressure Visibility Wind Dir Wind Speed Gust Speed Precip Events Conditions
12:15 AM 55.4 °F 51.8 °F 88% 29.94 in 10.0 mi East 9.2 mph - N/A   Overcast
12:53 AM 55.0 °F 51.1 °F 86% 29.95 in 10.0 mi East 8.1 mph - N/A   Overcast
1:53 AM 55.0 °F 51.1 °F 86% 29.91 in 10.0 mi East 6.9 mph - N/A   Overcast
2:34 AM 55.4 °F 51.8 °F 88% 29.92 in 10.0 mi East 4.6 mph - N/A   Overcast
2:53 AM 55.0 °F 52.0 °F 89% 29.92 in 6.0 mi East 6.9 mph - N/A   Overcast
3:24 AM 55.4 °F 51.8 °F 88% 29.90 in 4.0 mi East 6.9 mph - N/A   Overcast
3:53 AM 55.9 °F 52.0 °F 87% 29.89 in 4.0 mi East 6.9 mph - N/A   Overcast
4:27 AM 55.4 °F 53.6 °F 94% 29.89 in 2.5 mi East 6.9 mph - N/A   Overcast
4:46 AM 55.4 °F 53.6 °F 94% 29.88 in 3.0 mi East 8.1 mph - N/A   Overcast
4:53 AM 55.9 °F 53.1 °F 90% 29.88 in 2.5 mi East 9.2 mph - 0.02 in Rain Rain
5:07 AM 55.4 °F 53.6 °F 94% 29.88 in 3.0 mi East 5.8 mph - 0.01 in Rain Light Rain
5:30 AM 55.4 °F 53.6 °F 94% 29.88 in 2.0 mi East 5.8 mph - 0.09 in Rain Heavy Rain
5:44 AM 57.2 °F 53.6 °F 88% 29.89 in 4.0 mi ESE 5.8 mph - 0.09 in   Overcast
5:53 AM 57.0 °F 54.0 °F 89% 29.89 in 4.0 mi East 4.6 mph - 0.09 in   Overcast
6:02 AM 57.2 °F 53.6 °F 88% 29.88 in 4.0 mi East 5.8 mph - 0.00 in Rain Light Rain
6:23 AM 57.2 °F 53.6 °F 88% 29.87 in 4.0 mi ENE 6.9 mph - 0.02 in Rain , Thunderstorm Light Rain
6:35 AM 57.2 °F 53.6 °F 88% 29.87 in 2.5 mi East 8.1 mph - 0.07 in Rain , Thunderstorm Heavy Rain
6:44 AM 57.2 °F 53.6 °F 88% 29.87 in 3.0 mi East 8.1 mph - 0.07 in Rain , Thunderstorm Light Rain
6:53 AM 57.0 °F 54.0 °F 89% 29.88 in 3.0 mi ENE 5.8 mph - 0.07 in Rain , Thunderstorm Light Rain
7:06 AM 57.2 °F 55.4 °F 94% 29.88 in 5.0 mi ENE 4.6 mph - 0.01 in Rain , Thunderstorm Light Rain
7:09 AM 57.2 °F 55.4 °F 94% 29.87 in 4.0 mi ENE 5.8 mph - 0.01 in Rain Light Rain
7:15 AM 57.2 °F 55.4 °F 94% 29.87 in 2.0 mi East 5.8 mph - 0.02 in Rain Rain
7:21 AM 57.2 °F 55.4 °F 94% 29.88 in 1.8 mi East 6.9 mph - 0.03 in Rain Light Rain
7:41 AM 57.2 °F 55.4 °F 94% 29.87 in 2.0 mi East 6.9 mph - 0.03 in   Overcast
7:53 AM 57.9 °F 55.0 °F 90% 29.87 in 2.5 mi ENE 6.9 mph - 0.04 in Rain Light Rain
8:00 AM 59.0 °F 55.4 °F 88% 29.86 in 3.0 mi East 8.1 mph - 0.00 in Thunderstorm Overcast
8:16 AM 59.0 °F 55.4 °F 88% 29.86 in 3.0 mi East 9.2 mph - 0.00 in   Overcast
8:27 AM 59.0 °F 55.4 °F 88% 29.85 in 3.0 mi East 8.1 mph - 0.00 in   Overcast
8:35 AM 59.0 °F 55.4 °F 88% 29.85 in 3.0 mi East 9.2 mph - 0.00 in Rain Light Rain
8:53 AM 60.1 °F 55.9 °F 86% 29.85 in 5.0 mi ESE 8.1 mph - 0.00 in   Overcast
9:41 AM 62.6 °F 57.2 °F 82% 29.83 in 6.0 mi SE 6.9 mph - N/A Thunderstorm Overcast
9:53 AM 62.1 °F 59.0 °F 90% 29.83 in 6.0 mi SE 5.8 mph - N/A   Overcast
10:53 AM 69.1 °F 64.9 °F 87% 29.80 in 8.0 mi SSE 8.1 mph - 0.00 in Rain Light Rain
11:00 AM 68.0 °F 64.4 °F 88% 29.80 in 6.0 mi SSE 6.9 mph - 0.02 in Rain , Thunderstorm Rain
11:17 AM 68.0 °F 64.4 °F 88% 29.83 in 1.8 mi SW 11.5 mph - 0.14 in Rain , Thunderstorm Heavy Thunderstorms and Rain
11:33 AM 69.8 °F 64.4 °F 83% 29.82 in 2.5 mi SW 12.7 mph 19.6 mph 0.20 in Rain , Thunderstorm Light Thunderstorms and Rain
11:40 AM 69.8 °F 64.4 °F 83% 29.82 in 10.0 mi SW 15.0 mph 21.9 mph 0.20 in Rain , Thunderstorm Light Rain
11:47 AM 71.6 °F 64.4 °F 78% 29.81 in 10.0 mi SSW 11.5 mph 21.9 mph 0.20 in Thunderstorm Mostly Cloudy
11:53 AM 73.0 °F 66.0 °F 79% 29.81 in 10.0 mi SSW 13.8 mph - 0.20 in Thunderstorm Mostly Cloudy
12:02 PM 71.6 °F 64.4 °F 78% 29.82 in 10.0 mi SSW 13.8 mph - N/A   Mostly Cloudy
12:53 PM 73.0 °F 64.0 °F 73% 29.82 in 10.0 mi SW 15.0 mph 24.2 mph N/A   Mostly Cloudy
1:32 PM 73.4 °F 64.4 °F 73% 29.83 in 10.0 mi SW 15.0 mph - N/A   Overcast
1:53 PM 73.0 °F 64.0 °F 73% 29.83 in 10.0 mi SW 18.4 mph 25.3 mph N/A   Overcast
2:11 PM 73.4 °F 64.4 °F 73% 29.82 in 10.0 mi SSW 17.3 mph - N/A   Mostly Cloudy
2:53 PM 75.0 °F 64.0 °F 69% 29.82 in 10.0 mi SW 15.0 mph - N/A   Overcast
3:53 PM 77.0 °F 64.9 °F 66% 29.81 in 10.0 mi SW 17.3 mph - N/A   Mostly Cloudy
4:20 PM 75.2 °F 64.4 °F 69% 29.81 in 10.0 mi SW 17.3 mph 25.3 mph N/A   Overcast
4:39 PM 75.2 °F 64.4 °F 69% 29.81 in 10.0 mi SW 13.8 mph 21.9 mph N/A   Overcast
4:53 PM 75.0 °F 64.9 °F 71% 29.81 in 10.0 mi SSW 12.7 mph 21.9 mph N/A   Overcast
5:10 PM 73.4 °F 66.2 °F 78% 29.81 in 10.0 mi SSW 13.8 mph 24.2 mph N/A   Overcast
5:20 PM 71.6 °F 66.2 °F 83% 29.80 in 2.5 mi SW 13.8 mph 20.7 mph 0.03 in Rain Rain
5:33 PM 71.6 °F 68.0 °F 88% 29.80 in 4.0 mi SW 11.5 mph 19.6 mph 0.03 in Rain Light Rain
5:45 PM 71.6 °F 66.2 °F 83% 29.80 in 5.0 mi SW 12.7 mph - 0.03 in Rain , Thunderstorm Light Rain
5:53 PM 72.0 °F 66.9 °F 84% 29.79 in 5.0 mi SW 11.5 mph - 0.03 in Rain , Thunderstorm Light Rain
6:00 PM 71.6 °F 66.2 °F 83% 29.79 in 6.0 mi SW 9.2 mph - 0.00 in   Haze
6:19 PM 71.6 °F 66.2 °F 83% 29.79 in 4.0 mi SW 9.2 mph - 0.02 in Rain , Thunderstorm Light Thunderstorms and Rain
6:34 PM 71.6 °F 66.2 °F 83% 29.79 in 4.0 mi SSW 5.8 mph - 0.02 in Rain Light Rain
6:53 PM 71.1 °F 66.9 °F 87% 29.78 in 5.0 mi SW 5.8 mph - 0.04 in   Overcast
7:44 PM 71.6 °F 66.2 °F 83% 29.80 in 2.5 mi WSW 11.5 mph - 0.05 in Rain Light Rain
7:53 PM 71.1 °F 64.9 °F 81% 29.79 in 6.0 mi SW 17.3 mph 23.0 mph 0.05 in Rain Light Rain
8:53 PM 72.0 °F 64.9 °F 78% 29.77 in 10.0 mi SW 15.0 mph - 0.00 in   Overcast
9:23 PM 73.4 °F 64.4 °F 73% 29.78 in 10.0 mi SSW 16.1 mph 27.6 mph N/A   Overcast
9:53 PM 73.9 °F 66.0 °F 76% 29.77 in 10.0 mi SW 13.8 mph 23.0 mph N/A   Overcast
10:53 PM 73.0 °F 66.9 °F 81% 29.76 in 10.0 mi SW 13.8 mph - N/A   Overcast
11:02 PM 73.4 °F 66.2 °F 78% 29.79 in 10.0 mi SW 15.0 mph 21.9 mph N/A   Overcast
11:41 PM 71.6 °F 64.4 °F 78% 29.81 in 10.0 mi SW 20.7 mph 33.4 mph 0.01 in Rain , Thunderstorm Light Rain
11:53 PM 69.1 °F 64.0 °F 84% 29.80 in 10.0 mi SW 21.9 mph 28.8 mph 0.02 in Rain , Thunderstorm Light Rain
11:58 PM 69.8 °F 64.4 °F 83% 29.82 in 10.0 mi SW 20.7 mph 29.9 mph 0.01 in Rain , Thunderstorm Light Rain